CFG220 EDDH-LGKR

Flight info

Callsign CFG220
Flight time 2h 30m
Altitude 39000
Route AMLUH2G AMLUH M852 DENIX DCT ZUCKA DCT ARMUT DCT LAMSI DCT PODET DCT KUSIB DCT TAZ DCT RODON DCT LIMJA N732 PITAS
Aircraft A20N/M-SDE2E3FGHIRWXY/LB1

Departure

Time 2026-05-06 17:47
Airport Hamburg Helmut Schmidt Airport (EDDH)

Arrival

Time 2026-05-06 20:17
Airport Corfu Ioannis Kapodistrias International Airport (LGKR)
Time Latitude Longitude Altitude Speed Heading
2026-05-06 17:04 53.63245 10.00349 48 ft 0 kts 86°
2026-05-06 17:37 53.63244 10.00336 48 ft 4 kts 86°
2026-05-06 17:38 53.63242 10.00290 48 ft 4 kts 86°
2026-05-06 17:38 53.63241 10.00245 43 ft 4 kts 86°
2026-05-06 17:38 53.63239 10.00201 43 ft 4 kts 106°
2026-05-06 17:38 53.63253 10.00175 48 ft 3 kts 175°
2026-05-06 17:39 53.63271 10.00172 48 ft 1 kts 175°
2026-05-06 17:41 53.63241 10.00176 43 ft 8 kts 175°
2026-05-06 17:41 53.63165 10.00186 45 ft 13 kts 176°
2026-05-06 17:42 53.63087 10.00192 46 ft 11 kts 186°
2026-05-06 17:42 53.63014 10.00125 47 ft 12 kts 213°
2026-05-06 17:42 53.62947 10.00052 48 ft 11 kts 215°
2026-05-06 17:42 53.62909 9.99955 48 ft 10 kts 243°
2026-05-06 17:43 53.62899 9.99924 47 ft 0 kts 243°
2026-05-06 17:45 53.62899 9.99923 47 ft 1 kts 243°
2026-05-06 17:45 53.62872 9.99834 43 ft 15 kts 243°
2026-05-06 17:45 53.62897 9.99718 45 ft 11 kts 340°
2026-05-06 17:46 53.62931 9.99691 45 ft 0 kts 332°
2026-05-06 17:46 53.62932 9.99690 45 ft 2 kts 332°
2026-05-06 17:46 53.63084 9.99559 45 ft 58 kts 332°
2026-05-06 17:46 53.63639 9.99083 47 ft 118 kts 333°
2026-05-06 17:47 53.64516 9.98311 66 ft 162 kts 333°
2026-05-06 17:47 53.65460 9.97480 778 ft 145 kts 334°
2026-05-06 17:47 53.66288 9.96648 1542 ft 133 kts 334°
2026-05-06 17:47 53.67078 9.95817 1985 ft 138 kts 334°
2026-05-06 17:48 53.67949 9.95115 2391 ft 146 kts 349°
2026-05-06 17:48 53.69000 9.94757 2841 ft 161 kts 358°
2026-05-06 17:48 53.70177 9.94695 3341 ft 178 kts
2026-05-06 17:48 53.71469 9.94750 3895 ft 192 kts
2026-05-06 17:49 53.72841 9.95120 4405 ft 207 kts 27°
2026-05-06 17:49 53.73953 9.96656 4869 ft 214 kts 57°
2026-05-06 17:49 53.74408 9.99021 4993 ft 216 kts 87°
2026-05-06 17:49 53.74404 10.01559 5002 ft 216 kts 93°
2026-05-06 17:50 53.74074 10.04033 5002 ft 219 kts 111°
2026-05-06 17:50 53.73331 10.06297 5009 ft 227 kts 119°
2026-05-06 17:50 53.72460 10.08778 5004 ft 260 kts 118°
2026-05-06 17:50 53.71555 10.11450 5003 ft 261 kts 117°
2026-05-06 17:51 53.70950 10.13257 5006 ft 262 kts 117°
2026-05-06 17:51 53.70061 10.15923 5008 ft 263 kts 117°
2026-05-06 17:51 53.69127 10.18606 5257 ft 267 kts 125°
2026-05-06 17:51 53.67721 10.20653 6065 ft 274 kts 151°
2026-05-06 17:52 53.65911 10.21713 6979 ft 278 kts 163°
2026-05-06 17:52 53.64032 10.22580 7907 ft 280 kts 164°
2026-05-06 17:52 53.62134 10.23446 8813 ft 283 kts 164°
2026-05-06 17:52 53.60230 10.24315 9520 ft 287 kts 164°
2026-05-06 17:53 53.58292 10.25201 9822 ft 287 kts 164°
2026-05-06 17:53 53.56339 10.26097 10050 ft 298 kts 164°
2026-05-06 17:53 53.54280 10.27042 10336 ft 321 kts 164°
2026-05-06 17:53 53.52065 10.28058 10827 ft 333 kts 165°
2026-05-06 17:54 53.49808 10.29092 11674 ft 335 kts 165°
2026-05-06 17:54 53.47567 10.30119 12480 ft 339 kts 166°
2026-05-06 17:54 53.45274 10.31169 13234 ft 343 kts 166°
2026-05-06 17:54 53.42941 10.32234 13963 ft 348 kts 166°
2026-05-06 17:55 53.40615 10.33290 14656 ft 351 kts 167°
2026-05-06 17:55 53.38252 10.34356 15372 ft 354 kts 167°
2026-05-06 17:55 53.35853 10.35434 16058 ft 357 kts 167°
2026-05-06 17:55 53.33452 10.36512 16742 ft 361 kts 167°
2026-05-06 17:56 53.31004 10.37611 17434 ft 364 kts 167°
2026-05-06 17:56 53.28563 10.38708 18096 ft 367 kts 167°
2026-05-06 17:56 53.26073 10.39826 18658 ft 371 kts 167°
2026-05-06 17:56 53.23558 10.40950 19232 ft 374 kts 167°
2026-05-06 17:57 53.21024 10.42081 19798 ft 378 kts 167°
2026-05-06 17:57 53.18498 10.43206 20348 ft 381 kts 167°
2026-05-06 17:57 53.15919 10.44353 20905 ft 384 kts 167°
2026-05-06 17:57 53.13312 10.45508 21457 ft 387 kts 168°
2026-05-06 17:58 53.10688 10.46403 21994 ft 390 kts 172°
2026-05-06 17:58 53.07999 10.47232 22538 ft 393 kts 172°
2026-05-06 17:58 53.05285 10.48071 23070 ft 396 kts 172°
2026-05-06 17:58 53.02585 10.48908 23573 ft 400 kts 172°
2026-05-06 17:59 52.99828 10.49765 23764 ft 401 kts 172°
2026-05-06 17:59 52.97107 10.50610 23844 ft 401 kts 172°
2026-05-06 17:59 52.94356 10.51463 23854 ft 402 kts 172°
2026-05-06 17:59 52.91579 10.52322 24213 ft 404 kts 172°
2026-05-06 18:00 52.88841 10.53169 24740 ft 405 kts 172°
2026-05-06 18:00 52.86047 10.54031 25179 ft 408 kts 172°
2026-05-06 18:00 52.83268 10.54888 25622 ft 410 kts 172°
2026-05-06 18:00 52.80444 10.55757 26063 ft 412 kts 172°
2026-05-06 18:01 52.77593 10.56634 26488 ft 414 kts 172°
2026-05-06 18:01 52.74765 10.57503 26910 ft 416 kts 172°
2026-05-06 18:01 52.71926 10.58374 27327 ft 418 kts 172°
2026-05-06 18:01 52.69039 10.59259 27747 ft 420 kts 172°
2026-05-06 18:02 52.66158 10.60140 28138 ft 422 kts 172°
2026-05-06 18:02 52.63256 10.61027 28543 ft 423 kts 172°
2026-05-06 18:02 52.60362 10.61910 28936 ft 424 kts 172°
2026-05-06 18:02 52.57484 10.62788 29313 ft 425 kts 173°
2026-05-06 18:03 52.54564 10.63676 29711 ft 426 kts 173°
2026-05-06 18:03 52.51654 10.64560 30068 ft 427 kts 173°
2026-05-06 18:03 52.48709 10.65454 30346 ft 429 kts 173°
2026-05-06 18:03 52.45784 10.66340 30635 ft 431 kts 173°
2026-05-06 18:04 52.42818 10.67237 30939 ft 432 kts 173°
2026-05-06 18:04 52.39876 10.68127 31267 ft 433 kts 173°
2026-05-06 18:04 52.36892 10.69028 31614 ft 433 kts 173°
2026-05-06 18:04 52.33925 10.69922 31961 ft 433 kts 173°
2026-05-06 18:05 52.30956 10.70816 32286 ft 434 kts 173°
2026-05-06 18:05 52.28014 10.71700 32624 ft 434 kts 173°
2026-05-06 18:05 52.25022 10.72598 32953 ft 434 kts 173°
2026-05-06 18:05 52.22074 10.73482 33278 ft 434 kts 173°
2026-05-06 18:06 52.19099 10.74372 33597 ft 434 kts 173°
2026-05-06 18:06 52.16127 10.75261 33898 ft 433 kts 173°
2026-05-06 18:06 52.13182 10.76140 34163 ft 433 kts 173°
2026-05-06 18:06 52.10206 10.77027 34411 ft 433 kts 173°
2026-05-06 18:07 52.07238 10.77910 34643 ft 433 kts 173°
2026-05-06 18:07 52.04273 10.78791 34883 ft 433 kts 173°
2026-05-06 18:07 52.01342 10.79661 35104 ft 433 kts 173°
2026-05-06 18:07 51.98369 10.80542 35324 ft 433 kts 173°
2026-05-06 18:08 51.95411 10.81500 35535 ft 435 kts 167°
2026-05-06 18:08 51.92551 10.83206 35732 ft 438 kts 160°
2026-05-06 18:08 51.89770 10.85296 35925 ft 440 kts 158°
2026-05-06 18:08 51.87033 10.87411 36132 ft 439 kts 158°
2026-05-06 18:09 51.84253 10.89505 36320 ft 439 kts 159°
2026-05-06 18:09 51.81473 10.91537 36505 ft 439 kts 160°
2026-05-06 18:09 51.78682 10.93535 36697 ft 438 kts 160°
2026-05-06 18:09 51.75892 10.95510 36889 ft 438 kts 160°
2026-05-06 18:10 51.73098 10.97477 37073 ft 438 kts 160°
2026-05-06 18:10 51.70301 10.99442 37262 ft 437 kts 160°
2026-05-06 18:10 51.67519 11.01395 37448 ft 437 kts 160°
2026-05-06 18:10 51.64727 11.03352 37615 ft 436 kts 160°
2026-05-06 18:11 51.61948 11.05298 37791 ft 436 kts 160°
2026-05-06 18:11 51.59198 11.07221 37967 ft 435 kts 160°
2026-05-06 18:11 51.56424 11.09159 38112 ft 435 kts 160°
2026-05-06 18:11 51.53644 11.11098 38264 ft 435 kts 160°
2026-05-06 18:12 51.50873 11.13029 38409 ft 434 kts 160°
2026-05-06 18:12 51.48098 11.14960 38523 ft 434 kts 160°
2026-05-06 18:12 51.45319 11.16891 38624 ft 434 kts 160°
2026-05-06 18:12 51.42545 11.18816 38722 ft 434 kts 160°
2026-05-06 18:13 51.37001 11.22655 38779 ft 434 kts 160°
2026-05-06 18:13 51.31460 11.26483 38778 ft 433 kts 160°
2026-05-06 18:14 51.25917 11.30301 38782 ft 434 kts 160°
2026-05-06 18:14 51.20367 11.34115 38779 ft 435 kts 160°
2026-05-06 18:15 51.14810 11.37923 38775 ft 435 kts 160°
2026-05-06 18:15 51.09240 11.41730 38783 ft 436 kts 160°
2026-05-06 18:16 51.03692 11.45512 38776 ft 436 kts 160°
2026-05-06 18:16 50.98106 11.49310 38777 ft 437 kts 160°
2026-05-06 18:17 50.92512 11.53104 38781 ft 437 kts 160°
2026-05-06 18:17 50.86923 11.56884 38772 ft 436 kts 161°
2026-05-06 18:18 50.81345 11.60648 38772 ft 435 kts 161°
2026-05-06 18:18 50.75772 11.64398 38770 ft 435 kts 161°
2026-05-06 18:19 50.70212 11.68129 38771 ft 434 kts 161°
2026-05-06 18:19 50.64665 11.71842 38767 ft 433 kts 161°
2026-05-06 18:20 50.59116 11.75546 38768 ft 432 kts 161°
2026-05-06 18:20 50.53586 11.79229 38769 ft 431 kts 161°
2026-05-06 18:21 50.48076 11.82889 38769 ft 431 kts 161°
2026-05-06 18:21 50.42570 11.86536 38769 ft 430 kts 161°
2026-05-06 18:22 50.37057 11.90180 38767 ft 430 kts 161°
2026-05-06 18:22 50.31553 11.93808 38769 ft 429 kts 161°
2026-05-06 18:23 50.26037 11.97435 38770 ft 429 kts 161°
2026-05-06 18:23 50.20543 12.01038 38767 ft 428 kts 161°
2026-05-06 18:24 50.15046 12.04635 38768 ft 428 kts 161°
2026-05-06 18:24 50.09550 12.08221 38764 ft 427 kts 161°
2026-05-06 18:25 50.04063 12.11794 38760 ft 427 kts 161°
2026-05-06 18:25 49.98616 12.15330 38760 ft 426 kts 161°
2026-05-06 18:26 49.93114 12.18894 38760 ft 426 kts 161°
2026-05-06 18:26 49.87664 12.22416 38758 ft 426 kts 161°
2026-05-06 18:27 49.82175 12.25953 38755 ft 426 kts 161°
2026-05-06 18:27 49.76706 12.29471 38751 ft 425 kts 161°
2026-05-06 18:28 49.71427 12.33638 38750 ft 430 kts 152°
2026-05-06 18:28 49.66554 12.39141 38746 ft 433 kts 146°
2026-05-06 18:29 49.61843 12.44887 38742 ft 433 kts 146°
2026-05-06 18:29 49.57086 12.50632 38738 ft 433 kts 146°
2026-05-06 18:30 49.52315 12.56362 38736 ft 434 kts 146°
2026-05-06 18:30 49.47585 12.62028 38734 ft 434 kts 146°
2026-05-06 18:31 49.43604 12.66785 38736 ft 435 kts 146°
2026-05-06 18:31 49.38032 12.73427 38730 ft 435 kts 146°
2026-05-06 18:32 49.34028 12.78188 38731 ft 436 kts 146°
2026-05-06 18:32 49.29225 12.83886 38731 ft 437 kts 146°
2026-05-06 18:33 49.24427 12.89564 38732 ft 437 kts 146°
2026-05-06 18:33 49.19577 12.95289 38736 ft 438 kts 146°
2026-05-06 18:34 49.14763 13.00956 38733 ft 438 kts 147°
2026-05-06 18:34 49.09955 13.06604 38723 ft 437 kts 147°
2026-05-06 18:35 49.05126 13.12261 38723 ft 437 kts 147°
2026-05-06 18:35 49.00308 13.17893 38730 ft 437 kts 147°
2026-05-06 18:36 48.95498 13.23501 38722 ft 436 kts 147°
2026-05-06 18:36 48.90684 13.29099 38726 ft 436 kts 147°
2026-05-06 18:37 48.85841 13.34716 38718 ft 436 kts 147°
2026-05-06 18:37 48.81014 13.40301 38717 ft 435 kts 148°
2026-05-06 18:38 48.76216 13.45843 38714 ft 435 kts 148°
2026-05-06 18:38 48.71372 13.51417 38716 ft 434 kts 148°
2026-05-06 18:39 48.66568 13.56915 38702 ft 433 kts 150°
2026-05-06 18:40 48.58935 13.63919 38696 ft 425 kts 156°
2026-05-06 18:40 48.53808 13.68341 38697 ft 426 kts 155°
2026-05-06 18:41 48.48674 13.72781 38692 ft 425 kts 156°
2026-05-06 18:41 48.43543 13.77205 38695 ft 426 kts 156°
2026-05-06 18:42 48.38381 13.81646 38705 ft 426 kts 156°
2026-05-06 18:42 48.33231 13.86065 38713 ft 426 kts 156°
2026-05-06 18:43 48.28094 13.90462 38728 ft 426 kts 156°
2026-05-06 18:43 48.22931 13.94872 38730 ft 426 kts 156°
2026-05-06 18:44 48.17763 13.99274 38728 ft 427 kts 156°
2026-05-06 18:44 48.12626 14.03641 38720 ft 427 kts 156°
2026-05-06 18:45 48.07436 14.08042 38708 ft 428 kts 156°
2026-05-06 18:45 48.02245 14.12433 38724 ft 430 kts 156°
2026-05-06 18:46 47.97029 14.16833 38727 ft 435 kts 156°
2026-05-06 18:46 47.91751 14.21277 38719 ft 436 kts 156°
2026-05-06 18:47 47.86460 14.25722 38721 ft 437 kts 156°
2026-05-06 18:47 47.81167 14.30160 38734 ft 436 kts 156°
2026-05-06 18:48 47.75879 14.34584 38738 ft 435 kts 156°
2026-05-06 18:48 47.70584 14.38999 38759 ft 436 kts 156°
2026-05-06 18:49 47.65310 14.43389 38763 ft 433 kts 156°
2026-05-06 18:49 47.60043 14.47761 38781 ft 432 kts 156°
2026-05-06 18:50 47.54846 14.52064 38791 ft 431 kts 156°
2026-05-06 18:50 47.49615 14.56386 38810 ft 430 kts 156°
2026-05-06 18:51 47.44394 14.60690 38821 ft 428 kts 156°
2026-05-06 18:51 47.39205 14.64961 38804 ft 426 kts 157°
2026-05-06 18:52 47.34059 14.69185 38828 ft 428 kts 157°
2026-05-06 18:52 47.28833 14.73461 38827 ft 430 kts 157°
2026-05-06 18:53 47.23600 14.77739 38827 ft 430 kts 157°
2026-05-06 18:53 47.18366 14.82006 38827 ft 430 kts 157°
2026-05-06 18:54 47.13128 14.86265 38829 ft 431 kts 157°
2026-05-06 18:54 47.07883 14.90518 38823 ft 430 kts 157°
2026-05-06 18:55 47.02643 14.94762 38827 ft 431 kts 157°
2026-05-06 18:55 46.97416 14.98986 38832 ft 431 kts 157°
2026-05-06 18:56 46.92147 15.03232 38843 ft 433 kts 157°
2026-05-06 18:56 46.86864 15.07482 38855 ft 435 kts 157°
2026-05-06 18:57 46.81553 15.11744 38860 ft 436 kts 157°
2026-05-06 18:57 46.76223 15.16010 38861 ft 437 kts 157°
2026-05-06 18:58 46.70878 15.20281 38867 ft 437 kts 157°
2026-05-06 18:58 46.65531 15.24542 38871 ft 439 kts 157°
2026-05-06 18:59 46.60171 15.28806 38877 ft 439 kts 157°
2026-05-06 18:59 46.54807 15.33061 38877 ft 439 kts 157°
2026-05-06 19:00 46.49446 15.37304 38878 ft 438 kts 157°
2026-05-06 19:00 46.44092 15.41533 38887 ft 438 kts 157°
2026-05-06 19:01 46.38745 15.45747 38889 ft 438 kts 157°
2026-05-06 19:01 46.33418 15.49934 38881 ft 437 kts 157°
2026-05-06 19:02 46.28068 15.54130 38877 ft 437 kts 157°
2026-05-06 19:02 46.22720 15.58319 38873 ft 437 kts 157°
2026-05-06 19:03 46.17367 15.62504 38896 ft 437 kts 157°
2026-05-06 19:03 46.12072 15.66856 38894 ft 439 kts 155°
2026-05-06 19:04 46.06826 15.71329 38883 ft 439 kts 155°
2026-05-06 19:04 46.01553 15.75776 38888 ft 439 kts 155°
2026-05-06 19:05 45.96269 15.80200 38893 ft 440 kts 155°
2026-05-06 19:05 45.90975 15.84620 38894 ft 441 kts 155°
2026-05-06 19:06 45.85695 15.89019 38893 ft 442 kts 155°
2026-05-06 19:06 45.80371 15.93446 38896 ft 443 kts 155°
2026-05-06 19:07 45.75029 15.97877 38928 ft 444 kts 155°
2026-05-06 19:07 45.69671 16.02311 38934 ft 445 kts 155°
2026-05-06 19:08 45.64291 16.06754 38934 ft 447 kts 155°
2026-05-06 19:08 45.58903 16.11194 38938 ft 448 kts 155°
2026-05-06 19:09 45.53533 16.15609 38944 ft 449 kts 155°
2026-05-06 19:09 45.48125 16.20046 38932 ft 447 kts 155°
2026-05-06 19:10 45.42715 16.24473 38932 ft 448 kts 155°
2026-05-06 19:10 45.37306 16.28891 38928 ft 448 kts 155°
2026-05-06 19:11 45.31890 16.33304 38926 ft 449 kts 155°
2026-05-06 19:11 45.26468 16.37712 38926 ft 449 kts 155°
2026-05-06 19:12 45.21041 16.42115 38927 ft 449 kts 155°
2026-05-06 19:12 45.15613 16.46509 38929 ft 449 kts 155°
2026-05-06 19:13 45.10219 16.51017 38929 ft 451 kts 153°
2026-05-06 19:13 45.04868 16.55655 38935 ft 451 kts 153°
2026-05-06 19:14 44.99509 16.60265 38934 ft 451 kts 154°
2026-05-06 19:14 44.94175 16.64825 38934 ft 451 kts 154°
2026-05-06 19:15 44.89666 16.68666 38931 ft 452 kts 154°
2026-05-06 19:15 44.84287 16.73238 38935 ft 452 kts 154°
2026-05-06 19:16 44.78022 16.78551 38934 ft 453 kts 154°
2026-05-06 19:16 44.73493 16.82383 38939 ft 453 kts 154°
2026-05-06 19:17 44.68118 16.86922 38943 ft 454 kts 154°
2026-05-06 19:17 44.62658 16.91523 38950 ft 455 kts 154°
2026-05-06 19:18 44.57251 16.96068 38952 ft 456 kts 154°
2026-05-06 19:18 44.51806 17.00637 38964 ft 456 kts 154°
2026-05-06 19:19 44.46355 17.05200 38975 ft 457 kts 154°
2026-05-06 19:19 44.40886 17.09768 38986 ft 458 kts 154°
2026-05-06 19:20 44.35413 17.14329 38994 ft 458 kts 154°
2026-05-06 19:20 44.29933 17.18886 38994 ft 458 kts 154°
2026-05-06 19:21 44.24473 17.23419 38992 ft 457 kts 154°
2026-05-06 19:21 44.19006 17.27944 39002 ft 457 kts 154°
2026-05-06 19:22 44.13548 17.32453 39007 ft 456 kts 155°
2026-05-06 19:22 44.08091 17.36951 39015 ft 455 kts 155°
2026-05-06 19:23 44.02678 17.41403 39016 ft 454 kts 155°
2026-05-06 19:23 43.97223 17.45882 39014 ft 455 kts 155°
2026-05-06 19:24 43.91766 17.50353 39024 ft 456 kts 155°
2026-05-06 19:24 43.86302 17.54818 39024 ft 456 kts 155°
2026-05-06 19:25 43.80839 17.59273 39031 ft 455 kts 155°
2026-05-06 19:25 43.75367 17.63724 39031 ft 457 kts 155°
2026-05-06 19:26 43.69873 17.68186 39033 ft 457 kts 155°
2026-05-06 19:26 43.64372 17.72639 39036 ft 458 kts 156°
2026-05-06 19:27 43.58861 17.77098 39042 ft 459 kts 155°
2026-05-06 19:27 43.53384 17.81523 39039 ft 459 kts 156°
2026-05-06 19:28 43.47868 17.85964 39047 ft 458 kts 156°
2026-05-06 19:28 43.42341 17.90401 39055 ft 460 kts 156°
2026-05-06 19:29 43.36818 17.94828 39044 ft 460 kts 156°
2026-05-06 19:29 43.31271 17.99265 39049 ft 462 kts 156°
2026-05-06 19:30 43.25717 18.03697 39050 ft 462 kts 156°
2026-05-06 19:30 43.20161 18.08125 39054 ft 461 kts 156°
2026-05-06 19:31 43.14648 18.12506 39059 ft 462 kts 156°
2026-05-06 19:31 43.06303 18.19121 39064 ft 462 kts 156°
2026-05-06 19:32 43.00734 18.23522 39080 ft 463 kts 156°
2026-05-06 19:32 42.95144 18.27932 39069 ft 463 kts 156°
2026-05-06 19:33 42.89562 18.32328 39073 ft 463 kts 156°
2026-05-06 19:33 42.83982 18.36710 39074 ft 463 kts 156°
2026-05-06 19:34 42.78389 18.41094 39073 ft 464 kts 156°
2026-05-06 19:34 42.72830 18.45443 39076 ft 464 kts 156°
2026-05-06 19:35 42.67270 18.49783 39074 ft 464 kts 156°
2026-05-06 19:35 42.61619 18.54184 39075 ft 465 kts 156°
2026-05-06 19:36 42.56010 18.58543 39092 ft 465 kts 156°
2026-05-06 19:36 42.50399 18.62894 39092 ft 465 kts 156°
2026-05-06 19:37 42.44784 18.67240 39068 ft 465 kts 156°
2026-05-06 19:37 42.39161 18.71585 39068 ft 465 kts 155°
2026-05-06 19:38 42.33534 18.75925 39058 ft 465 kts 155°
2026-05-06 19:38 42.27779 18.79824 39077 ft 459 kts 163°
2026-05-06 19:39 42.21728 18.82453 39072 ft 456 kts 171°
2026-05-06 19:39 42.15592 18.84670 39069 ft 456 kts 171°
2026-05-06 19:40 42.09505 18.86898 39071 ft 457 kts 170°
2026-05-06 19:40 42.03372 18.89144 39067 ft 457 kts 170°
2026-05-06 19:41 41.97238 18.91385 39073 ft 457 kts 170°
2026-05-06 19:41 41.91087 18.93627 39071 ft 458 kts 170°
2026-05-06 19:42 41.84934 18.95866 39076 ft 458 kts 170°
2026-05-06 19:42 41.78776 18.98102 38947 ft 458 kts 170°
2026-05-06 19:43 41.75740 18.99204 38723 ft 457 kts 170°
2026-05-06 19:43 41.72675 19.00315 38432 ft 456 kts 170°
2026-05-06 19:43 41.69614 19.01422 38142 ft 456 kts 170°
2026-05-06 19:43 41.66541 19.02533 37856 ft 457 kts 170°
2026-05-06 19:44 41.63470 19.03641 37579 ft 457 kts 170°
2026-05-06 19:44 41.60398 19.04749 37299 ft 457 kts 169°
2026-05-06 19:44 41.57323 19.05858 37018 ft 457 kts 169°
2026-05-06 19:44 41.54254 19.06963 36761 ft 457 kts 169°
2026-05-06 19:45 41.51179 19.08069 36506 ft 457 kts 169°
2026-05-06 19:45 41.48099 19.09176 36236 ft 458 kts 169°
2026-05-06 19:45 41.45040 19.10361 35975 ft 460 kts 165°
2026-05-06 19:45 41.42027 19.11835 35727 ft 461 kts 164°
2026-05-06 19:46 41.39016 19.13316 35470 ft 462 kts 164°
2026-05-06 19:46 41.35996 19.14798 35219 ft 462 kts 164°
2026-05-06 19:46 41.32978 19.16275 34973 ft 462 kts 164°
2026-05-06 19:46 41.29953 19.17751 34727 ft 463 kts 164°
2026-05-06 19:47 41.26929 19.19225 34481 ft 464 kts 164°
2026-05-06 19:47 41.23891 19.20704 34241 ft 464 kts 164°
2026-05-06 19:47 41.20861 19.22177 33992 ft 465 kts 164°
2026-05-06 19:47 41.17858 19.23636 33718 ft 466 kts 164°
2026-05-06 19:48 41.14812 19.25114 33451 ft 467 kts 164°
2026-05-06 19:48 41.11755 19.26596 33183 ft 467 kts 164°
2026-05-06 19:48 41.08693 19.28079 32915 ft 468 kts 164°
2026-05-06 19:48 41.05635 19.29559 32649 ft 469 kts 164°
2026-05-06 19:49 41.02560 19.31046 32389 ft 470 kts 163°
2026-05-06 19:49 40.99486 19.32530 32129 ft 470 kts 163°
2026-05-06 19:49 40.96407 19.34015 31868 ft 471 kts 163°
2026-05-06 19:49 40.93323 19.35502 31621 ft 472 kts 163°
2026-05-06 19:50 40.90239 19.36987 31376 ft 472 kts 163°
2026-05-06 19:50 40.87143 19.38477 31118 ft 473 kts 163°
2026-05-06 19:50 40.84045 19.39965 30868 ft 473 kts 163°
2026-05-06 19:50 40.80950 19.41451 30629 ft 472 kts 163°
2026-05-06 19:51 40.77912 19.42910 30388 ft 470 kts 162°
2026-05-06 19:51 40.74842 19.44381 30146 ft 468 kts 162°
2026-05-06 19:51 40.71792 19.45842 29865 ft 466 kts 162°
2026-05-06 19:51 40.68749 19.47298 29589 ft 464 kts 162°
2026-05-06 19:52 40.65723 19.48745 29311 ft 462 kts 162°
2026-05-06 19:52 40.62704 19.50186 29034 ft 460 kts 162°
2026-05-06 19:52 40.59705 19.51617 28709 ft 458 kts 162°
2026-05-06 19:52 40.56707 19.53046 28130 ft 458 kts 162°
2026-05-06 19:53 40.53724 19.54465 27475 ft 455 kts 163°
2026-05-06 19:53 40.50756 19.55875 26838 ft 451 kts 163°
2026-05-06 19:53 40.47815 19.57270 26227 ft 447 kts 163°
2026-05-06 19:53 40.44896 19.58654 25618 ft 444 kts 163°
2026-05-06 19:54 40.41999 19.60027 25024 ft 441 kts 163°
2026-05-06 19:54 40.39126 19.61388 24445 ft 437 kts 163°
2026-05-06 19:54 40.36276 19.62737 23873 ft 434 kts 163°
2026-05-06 19:54 40.33441 19.64076 23237 ft 431 kts 163°
2026-05-06 19:55 40.30660 19.65388 22472 ft 430 kts 163°
2026-05-06 19:55 40.27855 19.66709 21488 ft 428 kts 163°
2026-05-06 19:55 40.25058 19.68025 20514 ft 425 kts 163°
2026-05-06 19:55 40.22290 19.69328 19578 ft 420 kts 163°
2026-05-06 19:56 40.19561 19.70613 18667 ft 416 kts 163°
2026-05-06 19:56 40.16856 19.71884 17806 ft 408 kts 163°
2026-05-06 19:56 40.14218 19.73124 17031 ft 398 kts 163°
2026-05-06 19:56 40.11644 19.74332 16299 ft 389 kts 163°
2026-05-06 19:57 40.09114 19.75518 15555 ft 382 kts 163°
2026-05-06 19:57 40.06637 19.76677 14836 ft 375 kts 163°
2026-05-06 19:57 40.04207 19.77813 14136 ft 368 kts 163°
2026-05-06 19:57 40.01815 19.78931 13496 ft 359 kts 163°
2026-05-06 19:58 39.99530 19.80001 13260 ft 339 kts 163°
2026-05-06 19:58 39.98814 19.80337 13202 ft 332 kts 163°
2026-05-06 19:58 39.98595 19.80440 13188 ft 330 kts 163°
2026-05-06 19:58 39.96489 19.81426 12960 ft 313 kts 163°
2026-05-06 19:59 39.94474 19.82367 12586 ft 303 kts 163°
2026-05-06 19:59 39.92508 19.83280 12160 ft 304 kts 163°
2026-05-06 19:59 39.90525 19.84200 11737 ft 301 kts 163°
2026-05-06 19:59 39.88542 19.85000 11315 ft 296 kts 175°
2026-05-06 20:00 39.86521 19.84831 10911 ft 291 kts 200°
2026-05-06 20:00 39.84786 19.83565 10507 ft 286 kts 225°
2026-05-06 20:00 39.83679 19.81466 10112 ft 282 kts 250°
2026-05-06 20:00 39.83405 19.78968 9687 ft 281 kts 272°
2026-05-06 20:01 39.83477 19.76436 9240 ft 280 kts 267°
2026-05-06 20:01 39.83210 19.73943 8801 ft 278 kts 254°
2026-05-06 20:01 39.82523 19.71606 8377 ft 276 kts 243°
2026-05-06 20:01 39.81526 19.69480 7959 ft 275 kts 234°
2026-05-06 20:02 39.80324 19.67542 7539 ft 275 kts 227°
2026-05-06 20:02 39.78993 19.65775 7122 ft 271 kts 223°
2026-05-06 20:02 39.77708 19.64013 6713 ft 267 kts 234°
2026-05-06 20:02 39.77032 19.62685 6444 ft 264 kts 236°
2026-05-06 20:03 39.76039 19.60690 6014 ft 261 kts 236°
2026-05-06 20:03 39.75061 19.58725 5586 ft 258 kts 236°
2026-05-06 20:03 39.74090 19.56780 5167 ft 255 kts 235°
2026-05-06 20:03 39.73129 19.54862 4746 ft 252 kts 235°
2026-05-06 20:04 39.72173 19.52961 4309 ft 250 kts 234°
2026-05-06 20:04 39.70994 19.51384 3866 ft 241 kts 208°
2026-05-06 20:04 39.69441 19.50755 3647 ft 231 kts 185°
2026-05-06 20:04 39.67825 19.50704 3783 ft 233 kts 182°
2026-05-06 20:05 39.66189 19.50560 3809 ft 237 kts 185°
2026-05-06 20:05 39.64557 19.50340 3773 ft 232 kts 186°
2026-05-06 20:05 39.62975 19.50260 3662 ft 224 kts 170°
2026-05-06 20:05 39.61594 19.51064 3384 ft 223 kts 145°
2026-05-06 20:06 39.60382 19.52327 2998 ft 224 kts 141°
2026-05-06 20:06 39.59198 19.53646 2637 ft 224 kts 141°
2026-05-06 20:06 39.58014 19.54931 2516 ft 225 kts 142°
2026-05-06 20:06 39.56797 19.56203 2495 ft 224 kts 143°
2026-05-06 20:07 39.55571 19.57456 2494 ft 224 kts 144°
2026-05-06 20:07 39.54333 19.58703 2497 ft 230 kts 144°
2026-05-06 20:07 39.52975 19.60058 2493 ft 255 kts 143°
2026-05-06 20:07 39.51575 19.61457 2494 ft 253 kts 143°
2026-05-06 20:08 39.50186 19.62851 2515 ft 253 kts 143°
2026-05-06 20:08 39.48794 19.64250 2700 ft 254 kts 143°
2026-05-06 20:08 39.47392 19.65656 2898 ft 255 kts 143°
2026-05-06 20:08 39.45984 19.67067 2995 ft 257 kts 143°
2026-05-06 20:09 39.44570 19.68481 2998 ft 257 kts 143°
2026-05-06 20:09 39.43151 19.69899 2999 ft 258 kts 143°
2026-05-06 20:09 39.41735 19.71318 2989 ft 258 kts 143°
2026-05-06 20:09 39.40430 19.72858 2998 ft 259 kts 127°
2026-05-06 20:10 39.39753 19.75009 2998 ft 263 kts 98°
2026-05-06 20:10 39.39725 19.77383 2999 ft 264 kts 90°
2026-05-06 20:10 39.39775 19.79751 3000 ft 263 kts 89°
2026-05-06 20:10 39.39830 19.82123 2996 ft 264 kts 90°
2026-05-06 20:11 39.39876 19.84463 2997 ft 254 kts 90°
2026-05-06 20:11 39.39922 19.86678 3002 ft 239 kts 87°
2026-05-06 20:11 39.40191 19.88737 2996 ft 225 kts 76°
2026-05-06 20:11 39.40635 19.90617 2986 ft 213 kts 75°
2026-05-06 20:12 39.41048 19.92404 2872 ft 203 kts 75°
2026-05-06 20:12 39.41429 19.94084 2920 ft 193 kts 75°
2026-05-06 20:12 39.41846 19.95767 2892 ft 197 kts 64°
2026-05-06 20:12 39.42805 19.97006 2912 ft 201 kts 26°
2026-05-06 20:13 39.44139 19.97256 2858 ft 192 kts 348°
2026-05-06 20:13 39.45360 19.96795 2754 ft 174 kts 336°
2026-05-06 20:13 39.46397 19.96152 2589 ft 157 kts 329°
2026-05-06 20:13 39.47299 19.95501 2374 ft 147 kts 332°
2026-05-06 20:14 39.48239 19.94949 1988 ft 149 kts 336°
2026-05-06 20:14 39.49201 19.94450 1628 ft 148 kts 338°
2026-05-06 20:14 39.50141 19.93989 1427 ft 146 kts 340°
2026-05-06 20:14 39.51141 19.93586 1282 ft 150 kts 344°
2026-05-06 20:15 39.52147 19.93293 1121 ft 147 kts 349°
2026-05-06 20:15 39.53166 19.93056 1008 ft 148 kts 349°
2026-05-06 20:15 39.54167 19.92800 907 ft 147 kts 348°
2026-05-06 20:15 39.55165 19.92529 799 ft 146 kts 348°
2026-05-06 20:16 39.56147 19.92261 626 ft 142 kts 348°
2026-05-06 20:16 39.57115 19.92011 479 ft 142 kts 349°
2026-05-06 20:16 39.58083 19.91763 300 ft 141 kts 348°
2026-05-06 20:16 39.59029 19.91519 97 ft 134 kts 348°
2026-05-06 20:17 39.59890 19.91301 23 ft 112 kts 347°
2026-05-06 20:17 39.60359 19.91173 19 ft 27 kts 348°
2026-05-06 20:17 39.60520 19.91161 18 ft 11 kts 13°
2026-05-06 20:17 39.60574 19.91194 18 ft 0 kts 34°
2026-05-06 20:18 39.60576 19.91195 20 ft 2 kts 34°
2026-05-06 20:18 39.60598 19.91217 18 ft 1 kts 43°
2026-05-06 20:18 39.60614 19.91271 18 ft 7 kts 78°
2026-05-06 20:18 39.60619 19.91299 18 ft 4 kts 79°
2026-05-06 20:19 39.60625 19.91338 19 ft 5 kts 78°
2026-05-06 20:19 39.60629 19.91363 18 ft 0 kts 79°